• In Russia
  • List of Countries
  • For 7 days
  • Water Temperature
  • Weather Map
  • Weather Widgets
  • user-avatar
    Login

    Hourly Weather Malanje

    Today, 26 May, Tuesday

    Time Temperature Precipitation Wind Pressure Humidity
    00:00 +20°C° 0 mm 1 mps 665 mmHg 66%
    01:00 +20°C° 0 mm 1 mps 665 mmHg 70%
    02:00 +19°C° 0 mm 1 mps 665 mmHg 76%
    03:00 +19°C° 0 mm 1 mps 665 mmHg 83%
    04:00 +18°C° 0 mm 1 mps 664 mmHg 89%
    05:00 +19°C° 0 mm 1 mps 665 mmHg 88%
    06:00 +19°C° 0 mm 1 mps 665 mmHg 87%
    07:00 +19°C° 0 mm 1 mps 666 mmHg 86%
    08:00 +23°C° 0 mm 1 mps 667 mmHg 73%
    09:00 +26°C° 0 mm 1 mps 668 mmHg 61%
    10:00 +30°C° 0 mm 1 mps 669 mmHg 48%
    11:00 +29°C° 0 mm 0 mps 668 mmHg 43%
    12:00 +31°C° 0 mm 0 mps 668 mmHg 39%
    13:00 +32°C° 0 mm 0 mps 668 mmHg 35%
    14:00 +31°C° 0 mm 0 mps 667 mmHg 36%
    15:00 +32°C° 0 mm 1 mps 666 mmHg 37%
    16:00 +31°C° 0 mm 1 mps 666 mmHg 38%
    17:00 +28°C° 0 mm 1 mps 665 mmHg 45%
    18:00 +26°C° 0 mm 1 mps 665 mmHg 52%
    19:00 +24°C° 0 mm 1 mps 665 mmHg 59%
    20:00 +23°C° 0 mm 1 mps 665 mmHg 64%
    21:00 +22°C° 0 mm 1 mps 665 mmHg 68%
    22:00 +22°C° 0 mm 1 mps 665 mmHg 72%
    23:00 +21°C° 0 mm 1 mps 665 mmHg 77%

    Tomorrow, 27 May, Wednesday

    Time Temperature Precipitation Wind Pressure Humidity
    00:00 +20°C° 0 mm 1 mps 665 mmHg 82%
    01:00 +20°C° 0 mm 1 mps 665 mmHg 86%
    02:00 +19°C° 0 mm 1 mps 665 mmHg 89%
    03:00 +19°C° 0 mm 1 mps 665 mmHg 92%
    04:00 +19°C° 0 mm 1 mps 665 mmHg 95%
    05:00 +19°C° 0 mm 1 mps 665 mmHg 93%
    06:00 +19°C° 0 mm 1 mps 666 mmHg 90%
    07:00 +20°C° 0 mm 1 mps 666 mmHg 88%
    08:00 +23°C° 0 mm 1 mps 667 mmHg 75%
    09:00 +27°C° 0 mm 1 mps 668 mmHg 62%
    10:00 +30°C° 0 mm 1 mps 669 mmHg 49%
    11:00 +32°C° 0 mm 1 mps 668 mmHg 43%
    12:00 +32°C° 0 mm 0 mps 668 mmHg 38%
    13:00 +33°C° 0 mm 0 mps 668 mmHg 32%
    14:00 +32°C° 0 mm 0 mps 667 mmHg 34%
    15:00 +32°C° 0 mm 1 mps 666 mmHg 35%
    16:00 +31°C° 0 mm 1 mps 665 mmHg 37%
    17:00 +29°C° 0 mm 1 mps 666 mmHg 40%
    18:00 +28°C° 0 mm 1 mps 666 mmHg 44%
    19:00 +26°C° 0 mm 1 mps 666 mmHg 47%
    20:00 +26°C° 0 mm 1 mps 666 mmHg 52%
    21:00 +25°C° 0 mm 1 mps 667 mmHg 56%
    22:00 +24°C° 0 mm 1 mps 667 mmHg 61%
    23:00 +23°C° 0 mm 1 mps 666 mmHg 66%

    Day after tomorrow, 28 May, Thursday

    Time Temperature Precipitation Wind Pressure Humidity
    00:00 +22°C° 0 mm 1 mps 666 mmHg 71%
    01:00 +21°C° 0 mm 1 mps 666 mmHg 76%
    02:00 +20°C° 0 mm 1 mps 665 mmHg 79%
    03:00 +20°C° 0 mm 1 mps 665 mmHg 83%
    04:00 +19°C° 0 mm 1 mps 664 mmHg 86%
    05:00 +19°C° 0 mm 1 mps 665 mmHg 85%
    06:00 +20°C° 0 mm 1 mps 666 mmHg 83%
    07:00 +20°C° 0 mm 1 mps 666 mmHg 82%
    08:00 +23°C° 0 mm 1 mps 667 mmHg 70%
    09:00 +26°C° 0 mm 1 mps 668 mmHg 58%
    10:00 +29°C° 0 mm 2 mps 668 mmHg 46%
    11:00 +31°C° 0 mm 2 mps 668 mmHg 42%
    12:00 +32°C° 0 mm 1 mps 667 mmHg 38%
    13:00 +33°C° 0 mm 1 mps 667 mmHg 34%
    14:00 +32°C° 0 mm 1 mps 666 mmHg 36%
    15:00 +31°C° 0 mm 1 mps 666 mmHg 38%
    16:00 +30°C° 0 mm 1 mps 665 mmHg 41%
    17:00 +29°C° 0 mm 1 mps 665 mmHg 44%
    18:00 +25°C° 0 mm 0 mps 665 mmHg 47%
    19:00 +24°C° 0 mm 0 mps 665 mmHg 50%
    20:00 +23°C° 0 mm 0 mps 666 mmHg 53%
    21:00 +22°C° 0 mm 0 mps 666 mmHg 56%
    22:00 +21°C° 0 mm 0 mps 666 mmHg 59%
    23:00 +22°C° 0 mm 1 mps 665 mmHg 64%

    29 May, Friday

    Time Temperature Precipitation Wind Pressure Humidity
    00:00 +21°C° 0 mm 1 mps 665 mmHg 68%
    01:00 +20°C° 0 mm 1 mps 664 mmHg 73%
    02:00 +21°C° 0 mm 1 mps 665 mmHg 71%
    03:00 +21°C° 0 mm 1 mps 665 mmHg 70%
    04:00 +21°C° 0 mm 1 mps 665 mmHg 68%
    05:00 +21°C° 0 mm 1 mps 665 mmHg 66%
    06:00 +21°C° 0 mm 1 mps 666 mmHg 64%
    07:00 +21°C° 0 mm 1 mps 666 mmHg 62%
    08:00 +24°C° 0 mm 2 mps 667 mmHg 53%
    09:00 +26°C° 0 mm 2 mps 668 mmHg 44%
    10:00 +29°C° 0 mm 3 mps 668 mmHg 35%
    11:00 +30°C° 0 mm 3 mps 668 mmHg 32%
    12:00 +31°C° 0 mm 3 mps 667 mmHg 29%
    13:00 +34°C° 0 mm 3 mps 666 mmHg 25%
    14:00 +32°C° 0 mm 2 mps 666 mmHg 26%
    15:00 +32°C° 0 mm 2 mps 665 mmHg 27%
    16:00 +32°C° 0 mm 2 mps 665 mmHg 28%
    17:00 +29°C° 0 mm 1 mps 665 mmHg 33%
    18:00 +26°C° 0 mm 1 mps 665 mmHg 38%
    19:00 +24°C° 0 mm 1 mps 664 mmHg 42%
    20:00 +23°C° 0 mm 1 mps 664 mmHg 43%
    21:00 +22°C° 0 mm 1 mps 665 mmHg 44%
    22:00 +20°C° 0 mm 0 mps 665 mmHg 44%
    23:00 +21°C° 0 mm 1 mps 665 mmHg 46%

    30 May, Saturday

    Time Temperature Precipitation Wind Pressure Humidity
    00:00 +21°C° 0 mm 1 mps 665 mmHg 47%
    01:00 +20°C° 0 mm 1 mps 664 mmHg 48%
    02:00 +19°C° 0 mm 1 mps 664 mmHg 50%
    03:00 +19°C° 0 mm 1 mps 664 mmHg 52%
    04:00 +18°C° 0 mm 1 mps 664 mmHg 53%
    05:00 +18°C° 0 mm 1 mps 665 mmHg 55%
    06:00 +18°C° 0 mm 1 mps 665 mmHg 57%
    07:00 +17°C° 0 mm 2 mps 665 mmHg 58%
    08:00 +20°C° 0 mm 2 mps 666 mmHg 50%
    09:00 +24°C° 0 mm 2 mps 667 mmHg 43%
    10:00 +28°C° 0 mm 2 mps 667 mmHg 35%
    11:00 +29°C° 0 mm 3 mps 667 mmHg 31%
    12:00 +31°C° 0 mm 3 mps 667 mmHg 27%
    13:00 +33°C° 0 mm 3 mps 667 mmHg 22%
    14:00 +33°C° 0 mm 3 mps 666 mmHg 23%
    15:00 +32°C° 0 mm 2 mps 666 mmHg 24%
    16:00 +31°C° 0 mm 2 mps 665 mmHg 25%
    17:00 +28°C° 0 mm 1 mps 665 mmHg 29%
    18:00 +26°C° 0 mm 1 mps 665 mmHg 34%
    19:00 +21°C° 0 mm 0 mps 665 mmHg 38%
    20:00 +20°C° 0 mm 0 mps 665 mmHg 40%
    21:00 +20°C° 0 mm 0 mps 665 mmHg 41%
    22:00 +19°C° 0 mm 0 mps 665 mmHg 42%
    23:00 +18°C° 0 mm 0 mps 665 mmHg 44%

    31 May, Sunday

    Time Temperature Precipitation Wind Pressure Humidity
    00:00 +18°C° 0 mm 0 mps 665 mmHg 45%
    01:00 +19°C° 0 mm 1 mps 665 mmHg 47%
    02:00 +19°C° 0 mm 1 mps 665 mmHg 49%
    03:00 +18°C° 0 mm 1 mps 664 mmHg 50%
    04:00 +16°C° 0 mm 1 mps 664 mmHg 52%
    05:00 +18°C° 0 mm 1 mps 665 mmHg 53%
    06:00 +17°C° 0 mm 2 mps 665 mmHg 54%
    07:00 +17°C° 0 mm 2 mps 666 mmHg 55%
    08:00 +20°C° 0 mm 2 mps 666 mmHg 48%
    09:00 +25°C° 0 mm 3 mps 667 mmHg 41%
    10:00 +28°C° 0 mm 4 mps 668 mmHg 35%
    11:00 +29°C° 0 mm 4 mps 668 mmHg 32%
    12:00 +31°C° 0 mm 3 mps 667 mmHg 29%
    13:00 +33°C° 0 mm 3 mps 667 mmHg 26%
    14:00 +33°C° 0 mm 3 mps 667 mmHg 27%
    15:00 +32°C° 0 mm 2 mps 666 mmHg 27%
    16:00 +32°C° 0 mm 2 mps 666 mmHg 28%
    17:00 +29°C° 0 mm 1 mps 666 mmHg 34%
    18:00 +26°C° 0 mm 1 mps 666 mmHg 40%
    19:00 +21°C° 0 mm 0 mps 666 mmHg 46%
    20:00 +23°C° 0 mm 1 mps 666 mmHg 47%
    21:00 +22°C° 0 mm 1 mps 666 mmHg 49%
    22:00 +22°C° 0 mm 1 mps 666 mmHg 50%
    23:00 +21°C° 0 mm 1 mps 666 mmHg 51%
    Show more